Location: Izdebno
(52.6670°N, 16.2170°E)
Time: 03:27:43
(UTC+02:00)

Transit 4A - Pass Details

Date: 28 February 2024
Orbit: 871 x 972 km, 66.8° (Epoch: 22 April)

Event Time Altitude Azimuth Distance (km) Brightness Sun altitude
Rises 03:36:37 0° 270° (W) 3,573 - -28.8°
Reaches altitude 10° 03:39:36 10° 283° (WNW) 2,614 - -28.4°
Exits shadow 03:43:54 26° 327° (NNW) 1,725 9.2 -27.8°
Maximum altitude 03:44:37 26° 339° (NNW) 1,699 9.3 -27.7°
Drops below altitude 10° 03:49:33 10° 35° (NE) 2,565 10.9 -27.0°
Sets 03:52:28 0° 48° (NE) 3,493 12.0 -26.6°
